Weather History for KHFD - September, 2013

Change the Weather History Date:

Wednesday, September 18, 2013

  Actual Average Record
Temperature  
Mean Temperature 58 °F -  
Max Temperature 73 °F 74 °F 92 °F (1991)
Min Temperature 42 °F 52 °F 37 °F (1956)
Degree Days  
Heating Degree Days 8    
Growing Degree Days 8 (Base 50)    
Moisture  
Dew Point 45 °F    
Average Humidity 82    
Maximum Humidity 100    
Minimum Humidity 30    
Precipitation  
Precipitation 0.00 in - - ()
Sea Level Pressure  
Sea Level Pressure 30.29 in    
Wind  
Wind Speed 1 mph (South)    
Max Wind Speed 8 mph    
Max Gust Speed -    
Visibility 6 miles    
Events Fog    
Averages and records for this station are not official NWS values.
T = Trace of Precipitation, MM = Missing Value Source: NWS Daily Summary

Daily Weather History Graph

Daily Weather History Graph

Search for Another Location

Airport or City:

Trip Planner

Search our weather history database for the weather conditions in past years. The results will help you decide how hot, cold, wet, or windy it might be!

Date:

Astronomy

Sep. 18, 2013 Rise Set
Actual Time 6:34 AM EDT 6:54 PM EDT
Civil Twilight 6:06 AM EDT 7:22 PM EDT
Nautical Twilight 5:33 AM EDT 7:54 PM EDT
Astronomical Twilight 4:59 AM EDT 8:28 PM EDT
Moon 6:15 PM EDT (9/18) 5:33 AM EDT (9/18)
Length of Visible Light 13h 15m
Length of Day
12h 20m
Waxing Gibbous, 99% of the Moon is Illuminated
Sep 18
Waxing Gibbous
Sep 19
Full
Sep 26
Last Quarter
Oct 4
New
Oct 11
First Quarter

Hourly Weather History & Observations

Time (EDT) Temp. Windchill Dew Point Humidity Pressure Visibility Wind Dir Wind Speed Gust Speed Precip Events Conditions
12:53 AM 46.9 °F - 45.0 °F 93% 30.35 in 10.0 mi Calm Calm - N/A   Clear
1:53 AM 45.0 °F - 43.0 °F 93% 30.35 in 10.0 mi Calm Calm - N/A   Clear
2:29 AM 44.6 °F - 42.8 °F 93% 30.34 in 1.5 mi Calm Calm - N/A   Clear
2:40 AM 44.6 °F - 44.6 °F 100% 30.34 in 3.0 mi Calm Calm - N/A   Clear
2:53 AM 45.0 °F - 44.1 °F 97% 30.34 in 10.0 mi Calm Calm - N/A   Clear
3:25 AM 44.6 °F - 44.6 °F 100% 30.33 in 5.0 mi Calm Calm - N/A   Scattered Clouds
3:28 AM 44.6 °F - 44.6 °F 100% 30.33 in 2.5 mi Calm Calm - N/A   Mostly Cloudy
3:33 AM 44.6 °F - 44.6 °F 100% 30.34 in 0.8 mi Calm Calm - N/A   Mist
3:53 AM 45.0 °F - 45.0 °F 100% 30.34 in 0.5 mi Calm Calm - N/A Fog Fog
3:59 AM 44.6 °F 43.1 °F 44.6 °F 100% 30.33 in 2.0 mi SSW 3.5 mph - N/A   Overcast
4:07 AM 44.6 °F - 44.6 °F 100% 30.33 in 6.0 mi Calm Calm - N/A   Mostly Cloudy
4:25 AM 44.6 °F - 42.8 °F 93% 30.33 in 10.0 mi Calm Calm - N/A   Partly Cloudy
4:41 AM 44.6 °F - 42.8 °F 93% 30.33 in 8.0 mi Calm Calm - N/A   Mostly Cloudy
4:53 AM 44.1 °F - 43.0 °F 96% 30.33 in 10.0 mi Calm Calm - N/A   Overcast
5:02 AM 44.6 °F - 42.8 °F 93% 30.33 in 1.8 mi Calm Calm - N/A   Overcast
5:22 AM 44.6 °F - 42.8 °F 93% 30.33 in 3.0 mi Calm Calm - N/A   Overcast
5:25 AM 44.6 °F - 42.8 °F 93% 30.33 in 1.5 mi Calm Calm - N/A   Overcast
5:34 AM 42.8 °F - 42.8 °F 100% 30.33 in 0.5 mi Calm Calm - N/A Fog Fog
5:53 AM 44.1 °F - 43.0 °F 96% 30.33 in 0.2 mi Calm Calm - N/A Fog Fog
6:53 AM 44.1 °F - 44.1 °F 100% 30.34 in 0.2 mi Calm Calm - N/A Fog Fog
7:53 AM 44.1 °F - 44.1 °F 100% 30.35 in 0.2 mi Calm Calm - N/A Fog Fog
8:53 AM 46.0 °F - 46.0 °F 100% 30.34 in 0.2 mi Calm Calm - N/A Fog Fog
9:09 AM 46.4 °F - 46.4 °F 100% 30.34 in 1.5 mi Calm Calm - N/A   Overcast
9:17 AM 46.4 °F - 46.4 °F 100% 30.33 in 10.0 mi Calm Calm - N/A   Clear
9:53 AM 52.0 °F - 46.9 °F 83% 30.32 in 10.0 mi Calm Calm - N/A   Clear
10:53 AM 59.0 °F - 48.0 °F 67% 30.31 in 10.0 mi Calm Calm - N/A   Clear
11:53 AM 64.0 °F - 48.0 °F 56% 30.29 in 10.0 mi SE 4.6 mph - N/A   Clear
12:53 PM 66.9 °F - 48.0 °F 51% 30.26 in 10.0 mi SE 6.9 mph - N/A   Clear
1:53 PM 70.0 °F - 44.1 °F 39% 30.23 in 10.0 mi SE 5.8 mph - N/A   Clear
2:53 PM 72.0 °F - 42.1 °F 34% 30.21 in 10.0 mi NW 3.5 mph - N/A   Clear
3:53 PM 73.0 °F - 41.0 °F 31% 30.19 in 10.0 mi SSE 3.5 mph - N/A   Clear
4:53 PM 73.0 °F - 39.9 °F 30% 30.18 in 10.0 mi Variable 3.5 mph - N/A   Clear
5:53 PM 71.1 °F - 44.1 °F 38% 30.17 in 10.0 mi SSW 8.1 mph - N/A   Clear
6:53 PM 66.0 °F - 48.9 °F 54% 30.17 in 10.0 mi South 6.9 mph - N/A   Clear
7:53 PM 61.0 °F - 51.1 °F 70% 30.17 in 10.0 mi South 4.6 mph - N/A   Clear
8:53 PM 59.0 °F - 48.9 °F 69% 30.18 in 10.0 mi South 3.5 mph - N/A   Clear
9:53 PM 55.0 °F - 48.0 °F 77% 30.19 in 10.0 mi Calm Calm - N/A   Clear
10:53 PM 54.0 °F - 48.9 °F 83% 30.19 in 10.0 mi Calm Calm - N/A   Clear
11:53 PM 53.1 °F - 48.0 °F 83% 30.18 in 10.0 mi Calm Calm - N/A   Clear